Tracking 17560 objects as of 11-February-2016
HD Live streaming from Space Station
objects crossing your sky now

MOLNIYA 1-93

Track MOLNIYA 1-93 now!
MOLNIYA 1-93 is classified as:


NORAD ID: 28163
Int'l Code: 2004-005A
Perigee: 102.7 km
Apogee: 33,003.8 km
Inclination: 63.1 °
Period: 575.7 minutes
Semi major axis: 22924 km
RCS: 12.4329 m2 (large)
Launch date: February 18, 2004
Source: Commonwealth of Independent States (former USSR) (CIS)
Launch site: PLESETSK MISSILE AND SPACE COMPLEX (PKMTR)

Military communications.
Your satellite tracking list
Your tracking list is empty





NASA's NSSDC Master Catalog

Two Line Element Set (TLE):
1 28163U 04005A   16042.14025053  .00211674 -91747-5  88397-4 0  9996
2 28163  63.0977 337.4799 7176062 244.2070  28.4113  2.50126843 8844
Source of the keplerian elements: AFSPC

N2YO: 415